This is the latest recevied weather packets stored in our database for station/object KB9GXK. If no packets are shown the sender has not sent any weather packets the latest 10 day(s).
| Time | Temp. | Humidity | Pressure | Rain* | Wind** | Luminosity | Snow |
|---|---|---|---|---|---|---|---|
| 1778014641 | 14.44° C | 30% | 1009.1 hPa | 0 mm | - | 363 W/m² | - |
| 1778014339 | 14.44° C | 33% | 1009.2 hPa | 0 mm | - | 232 W/m² | - |
| 1778014035 | 14.44° C | 32% | 1009.3 hPa | 0 mm | - | 212 W/m² | - |
| 1778013733 | 14.44° C | 32% | 1009.3 hPa | 0 mm | - | 214 W/m² | - |
| 1778013430 | 15° C | 33% | 1009.5 hPa | 0 mm | - | 232 W/m² | - |
| 1778013127 | 15° C | 31% | 1009.4 hPa | 0 mm | - | 243 W/m² | - |
| 1778012822 | 14.44° C | 31% | 1009.4 hPa | 0 mm | - | 243 W/m² | - |
| 1778012519 | 15° C | 29% | 1009.2 hPa | 0 mm | - | 267 W/m² | - |
| 1778012215 | 15° C | 29% | 1009.5 hPa | 0 mm | - | 275 W/m² | - |
| 1778011913 | 15° C | 31% | 1009.4 hPa | 0 mm | - | 261 W/m² | - |
| 1778011611 | 15.56° C | 29% | 1009.4 hPa | 0 mm | - | 364 W/m² | - |
| 1778011307 | 15° C | 29% | 1009.6 hPa | 0 mm | - | 428 W/m² | - |
| 1778011003 | 15° C | 29% | 1009.5 hPa | 0 mm | - | 334 W/m² | - |
| 1778010701 | 15.56° C | 29% | 1009.4 hPa | 0 mm | - | 392 W/m² | - |
| 1778010398 | 15.56° C | 30% | 1009.3 hPa | 0 mm | - | 365 W/m² | - |
| 1778010094 | 16.11° C | 29% | 1009.4 hPa | 0 mm | - | 368 W/m² | - |
| 1778009791 | 16.11° C | 30% | 1009.6 hPa | 0 mm | - | 402 W/m² | - |
| 1778009488 | 16.11° C | 31% | 1009.8 hPa | 0 mm | - | 446 W/m² | - |
| 1778009187 | 16.11° C | 32% | 1009.9 hPa | 0 mm | - | 620 W/m² | - |
| 1778008883 | 15.56° C | 33% | 1009.7 hPa | 0 mm | - | 550 W/m² | - |
| 1778008582 | 15° C | 33% | 1009.5 hPa | 0 mm | - | 587 W/m² | - |
| 1778008279 | 15° C | 32% | 1009.5 hPa | 0 mm | - | 476 W/m² | - |
| 1778007975 | 15° C | 32% | 1009.6 hPa | 0 mm | - | 498 W/m² | - |
| 1778007670 | 15° C | 31% | 1009.8 hPa | 0 mm | - | 377 W/m² | - |
| 1778007367 | 16.11° C | 32% | 1009.5 hPa | 0 mm | - | 353 W/m² | - |
* Rain latest hour (hover to see other rain measurements)
** Current wind speed in m/s (hover to see current wind gust speed)